User: anonymous   Login
Location: El Corozo
(10.5833°N, 66.9667°W)
Time: 18:17:24
(UTC+00:00)
Language:

ATLAS 3B R/B - Orbit

View from above orbital plane
View from above orbital plane
View from above satellite
View from above satellite

Ground track
Ground track

The orbit data is extracted from the following two-line orbital elements,

1 28538U 05004B   24200.51538683  .00000032  00000-0  18309-3 0  9991
2 28538  63.8232 250.8495 0208341 294.8396  63.1095 13.43264144 11293
Epoch (UTC): 18 July 2024 12:22:09
Eccentricity: 0.0208341
inclination: 63.8232°
perigee height: 941 km
apogee height: 1253 km
right ascension of ascending node: 250.8495°
argument of perigee: 294.8396°
revolutions per day: 13.43264144
mean anomaly at epoch: 63.1095°
orbit number at epoch: 1129

The dashed part of the orbit path shows where the satellite is in the earth's shadow,  

DLR